Location: ????? ???????
(25.7275°N, 32.5929°E)
Time: 11:41:18
(UTC+00:00)

Cosmos 2219 Rocket - Pass Details

Date: 02 March 2021
Orbit: 826 x 848 km, 71.0° (Epoch: 15 April)

Event Time Altitude Azimuth Distance (km) Brightness Sun altitude
Rises 17:52:27 0° 210° (SSW) 3,349 5.6 -27.9°
Reaches altitude 10° 17:54:56 10° 215° (SW) 2,419 4.9 -28.5°
Maximum altitude 18:00:19 51° 290° (WNW) 1,027 2.9 -29.7°
Enters shadow 18:03:57 20° 359° (N) 1,806 3.9 -30.5°
